Theta_e
317 311 311 312 297 295 292 296 299 302 307 323 328 323 319 320 318 311 327 335 334 329 331 334 341 344 345 346 347 349 352 352 354 355 354 353 353 354 354 354 354 354 354 353 352 352 351 351 350
314 314 309 303 294 288 292 303 305 312 318 323 324 323 321 317 322 321 324 327 329 326 325 329 335 337 339 340 341 342 345 348 351 351 354 354 354 354 354 354 353 354 353 353 352 351 352 351 348
315 315 301 298 293 290 291 302 307 312 319 317 315 316 316 315 319 317 321 323 324 319 321 324 329 332 333 334 335 337 339 342 344 347 350 351 352 353 353 352 352 353 352 352 352 351 352 350 346
307 303 302 294 292 297 298 301 309 308 310 318 316 309 313 315 318 319 322 324 319 316 317 323 327 326 327 329 330 331 332 336 339 341 342 344 347 350 350 350 351 352 352 352 352 352 351 348 346
301 299 293 293 295 300 301 305 308 306 310 317 318 311 310 315 319 321 319 320 317 317 317 319 326 325 324 323 324 325 326 327 329 333 331 334 339 343 346 347 348 349 351 352 351 351 349 347 346
296 298 290 289 294 301 301 305 308 309 312 315 313 311 309 317 317 318 318 315 316 315 316 316 322 326 323 322 322 324 326 328 329 330 329 330 334 337 341 345 346 346 347 347 348 347 347 347 346
294 292 289 292 295 299 302 306 305 304 305 311 315 308 309 313 316 316 314 313 314 313 313 313 313 316 321 324 324 325 326 327 328 329 327 328 328 330 334 340 344 345 345 345 345 345 344 345 345
296 294 290 291 293 295 303 306 306 304 304 312 313 307 305 311 315 313 312 311 310 310 309 310 310 310 309 310 324 325 327 325 327 324 325 325 324 326 327 328 331 335 340 343 344 343 343 343 342
298 290 288 292 295 296 304 302 304 305 304 308 310 310 311 313 313 309 308 307 307 308 307 307 307 308 308 309 315 316 321 321 321 317 320 318 316 316 319 325 327 330 333 340 341 341 341 340 339
295 289 292 297 296 297 302 302 303 301 302 304 306 311 312 311 308 306 304 303 303 303 304 306 306 306 306 311 308 308 312 310 311 310 311 313 312 314 318 319 324 323 326 329 337 338 338 338 340
296 291 296 298 299 299 297 299 301 301 298 301 303 304 307 307 305 302 302 303 302 303 304 304 305 306 305 306 306 306 307 307 308 308 310 309 310 310 311 312 313 314 320 317 319 323 336 337 339
292 299 299 297 298 298 296 297 300 298 300 306 303 305 304 303 302 301 301 301 302 303 303 303 304 304 305 305 305 305 305 306 305 307 308 306 306 306 307 308 310 311 313 313 315 317 322 335 340
297 298 300 299 299 297 299 297 299 300 303 305 305 305 302 301 300 301 301 302 301 302 302 302 303 303 304 303 303 304 305 304 305 305 308 307 305 305 306 306 307 307 310 310 310 311 314 316 323
299 297 297 298 298 298 296 296 297 299 302 303 303 300 300 300 300 300 300 299 300 301 302 302 303 303 302 301 301 302 302 303 303 304 305 306 305 303 304 304 305 304 303 303 304 305 309 312 316
299 294 295 296 296 296 297 292 294 301 302 300 300 300 299 300 300 298 298 298 298 299 301 301 302 302 300 300 301 301 302 303 302 302 303 304 302 302 301 300 300 300 300 301 302 303 305 307 312
294 292 287 296 297 297 295 287 296 299 299 296 298 299 299 299 299 298 298 298 299 299 299 301 303 300 300 300 299 300 300 300 300 300 301 301 302 300 298 298 297 298 299 300 300 301 302 304 308
290 285 288 293 297 295 292 288 295 299 298 297 297 297 297 297 297 297 297 297 298 299 299 299 300 299 299 298 298 298 299 298 299 299 298 298 296 298 296 296 297 298 299 299 300 300 300 300 301
286 288 288 287 293 294 290 291 294 297 297 296 295 295 296 296 296 298 298 298 298 298 299 299 299 298 297 296 296 297 297 297 298 295 296 294 295 295 294 295 295 297 296 297 298 298 300 300 300
293 291 288 290 295 292 290 289 291 297 296 294 295 295 295 295 296 298 298 298 297 297 297 297 297 296 296 295 294 294 293 294 294 294 293 293 293 293 293 294 293 294 293 294 295 296 297 299 301
293 290 288 291 295 294 290 290 292 295 296 296 295 296 293 294 295 297 297 296 296 296 296 295 295 295 294 294 294 293 292 292 292 292 291 292 292 292 292 293 291 292 291 292 293 294 294 297 299
291 289 288 288 292 291 291 288 291 295 297 299 299 297 294 293 294 295 297 295 295 294 293 294 294 294 294 293 292 291 291 291 290 289 290 290 292 292 292 291 290 289 290 290 292 293 294 294 298
287 293 293 291 287 281 290 280 288 293 294 297 298 295 295 294 295 296 296 294 294 293 294 293 294 293 293 292 291 288 288 287 288 289 289 289 290 290 290 290 289 289 289 289 290 292 292 293 293
290 295 292 291 286 285 285 282 284 291 291 292 293 293 293 294 293 293 293 293 293 293 292 292 292 292 292 290 290 288 287 288 288 288 288 288 289 290 288 288 286 287 287 288 289 290 292 293 294
296 293 291 290 287 279 286 285 285 289 293 294 294 294 294 293 293 294 294 294 292 291 291 289 290 290 290 289 288 287 285 286 285 285 285 286 287 288 287 288 286 286 286 286 288 289 289 290 292
292 287 279 277 277 278 288 284 288 293 295 296 294 293 293 293 292 291 291 290 290 289 289 288 288 288 289 288 286 286 286 284 283 283 283 284 285 285 285 286 285 285 286 286 287 287 287 288 288
290 288 281 276 276 279 287 281 286 294 296 296 295 294 293 291 291 289 288 287 288 289 287 286 287 287 288 287 285 285 285 283 284 283 283 283 283 285 285 284 284 285 285 286 286 285 285 286 286
289 284 289 283 283 278 282 286 292 294 292 293 293 292 290 290 289 288 288 287 287 286 285 285 285 286 287 285 284 283 284 283 282 281 281 281 282 283 282 282 282 283 283 284 284 283 283 284 284
290 292 282 283 276 275 279 281 284 291 290 293 289 289 293 292 290 288 287 285 285 285 284 283 284 283 285 283 282 282 283 283 283 282 280 280 280 281 281 280 281 281 281 282 282 281 282 282 283
288 286 287 286 283 277 275 277 291 291 295 291 290 289 287 288 286 286 285 284 284 282 285 282 281 280 282 285 284 283 282 282 283 283 282 281 280 280 280 280 280 279 280 279 279 280 279 279 280
292 288 287 280 279 282 280 280 294 293 297 297 293 292 291 286 285 284 282 282 281 283 283 284 284 283 282 281 284 284 282 279 282 283 283 282 279 280 279 279 279 279 278 278 277 276 277 276 276
Wind_Speed
8 9 4 3 5 4 6 10 5 4 7 6 10 21 17 13 6 5 5 5 7 9 8 11 17 18 17 17 16 15 13 13 11 8 6 4 2 1 2 1 1 2 1 2 1 2 3 3 2
5 7 2 1 4 2 7 11 5 9 6 20 20 13 13 9 8 5 2 2 11 6 7 11 17 17 17 16 16 15 15 13 13 10 8 5 2 0 1 3 3 3 4 5 5 4 3 2 3
3 5 3 4 3 6 4 3 7 6 6 8 8 11 7 6 8 2 4 3 11 9 10 11 16 17 16 16 17 16 16 15 14 12 11 10 9 5 2 3 4 5 5 6 7 6 4 2 3
4 4 5 2 9 11 3 1 8 6 7 12 13 12 8 4 5 6 3 12 11 9 9 9 13 16 16 17 16 16 16 14 13 12 12 11 10 10 7 3 3 5 6 7 6 6 6 5 4
0 2 1 4 10 11 3 3 3 6 8 10 4 6 7 7 7 9 12 11 10 7 4 7 11 13 17 17 16 15 15 14 13 12 14 13 11 10 9 7 5 6 6 6 6 6 6 6 6
4 3 3 6 9 4 1 3 6 6 15 9 10 8 4 13 10 10 11 10 7 5 6 7 13 13 12 14 12 12 12 12 12 13 17 17 15 11 9 9 8 7 8 8 8 9 8 8 8
6 2 7 7 10 7 1 1 5 13 13 10 10 7 6 12 9 11 9 8 7 6 7 7 7 10 9 9 9 9 10 11 12 15 18 18 17 17 15 12 10 10 10 10 10 10 10 9 10
2 4 7 6 6 6 4 4 5 9 10 2 3 8 9 11 14 11 9 7 7 7 7 7 7 7 7 5 11 11 13 15 13 17 17 15 16 18 17 15 11 12 11 12 11 10 10 11 11
1 3 4 6 6 4 2 4 7 6 11 14 9 6 17 19 16 10 7 6 6 6 7 7 7 7 8 6 8 11 14 15 14 13 17 11 7 9 12 16 20 20 20 10 9 10 10 11 11
5 4 5 1 3 4 5 5 6 6 7 8 13 14 16 15 13 12 7 7 7 6 7 6 7 7 7 6 7 7 7 6 6 7 7 6 8 9 13 15 18 20 19 18 12 10 11 10 6
2 3 5 2 6 8 7 7 2 10 5 6 15 11 11 7 8 10 7 8 8 6 6 7 7 7 7 6 4 3 3 3 4 7 6 6 5 5 6 6 7 8 13 8 10 10 6 5 6
1 6 6 4 5 4 6 7 6 6 3 16 14 12 8 10 9 9 9 8 8 8 6 7 7 7 7 4 4 4 3 3 4 5 6 5 3 4 4 4 7 8 7 10 8 6 10 10 5
6 6 9 9 8 3 3 6 7 7 9 14 14 11 10 10 10 9 9 8 9 9 7 7 7 6 6 6 4 4 4 4 5 5 6 5 4 5 5 6 7 7 8 10 11 10 9 10 11
8 6 9 9 11 7 4 5 4 4 8 11 12 10 10 12 10 9 9 7 8 7 7 6 7 7 6 5 6 4 4 5 5 5 6 9 7 6 6 7 8 8 9 9 10 10 10 9 9
9 8 9 11 9 9 4 6 7 14 11 12 11 11 10 10 12 9 8 8 9 6 7 7 7 7 7 6 6 5 5 5 5 5 6 7 6 7 8 6 6 7 8 11 9 10 9 9 9
5 4 3 13 11 9 11 9 6 16 17 12 10 11 11 9 12 10 10 9 8 8 8 7 7 7 7 7 6 5 5 5 4 5 5 10 10 10 7 7 7 8 8 7 7 8 9 9 8
4 6 6 13 7 5 8 4 5 15 16 15 12 10 10 9 10 9 9 9 9 8 7 7 7 7 7 7 5 6 7 5 5 7 8 13 12 12 9 6 7 11 9 9 10 10 9 10 10
7 5 5 3 7 9 5 8 7 12 14 15 11 11 12 12 10 11 10 9 8 8 7 7 5 8 7 5 4 5 5 5 8 7 9 12 9 11 8 7 9 9 8 9 9 12 10 10 10
4 6 9 8 11 7 6 6 6 14 8 9 13 13 11 15 10 11 9 9 9 8 8 8 9 8 6 6 7 6 6 6 7 8 12 11 10 10 9 7 8 9 9 10 11 10 12 9 10
5 6 8 6 11 13 11 11 5 5 9 13 11 15 18 16 13 11 9 8 8 8 8 8 8 8 8 7 6 4 4 6 6 7 8 10 11 11 11 10 9 10 9 11 11 10 9 8 8
5 5 6 7 7 7 9 12 7 6 8 10 14 15 20 21 17 12 10 9 9 8 8 7 8 9 8 8 6 4 4 5 7 8 8 9 12 11 11 12 10 10 9 8 10 10 12 9 8
5 6 6 7 8 3 8 12 7 15 14 16 8 17 16 17 14 12 10 9 9 7 7 8 9 8 8 7 7 7 6 7 8 7 8 9 11 11 12 12 11 10 8 10 9 10 10 9 10
2 6 4 3 4 7 4 5 5 4 8 8 16 19 17 15 14 11 10 10 8 7 6 7 8 8 7 8 9 6 7 6 6 6 9 10 10 11 12 11 11 11 8 10 11 11 10 8 8
5 4 6 5 2 5 14 8 9 5 6 11 15 16 15 14 14 11 9 10 8 7 7 7 8 8 8 9 9 9 8 7 6 7 7 7 8 8 13 12 11 11 11 11 10 11 12 10 9
3 1 3 4 1 7 6 5 5 10 16 12 16 15 14 13 11 8 8 8 8 8 8 7 8 7 7 8 8 7 7 6 5 6 7 8 8 8 12 14 12 11 13 12 11 11 11 11 10
6 8 5 5 3 9 7 4 1 3 11 17 15 13 11 9 7 8 9 8 8 9 9 8 8 7 7 8 7 6 6 4 6 7 6 6 7 8 12 11 12 14 15 12 12 9 9 11 10
1 4 5 4 6 2 4 4 1 5 7 9 10 8 7 8 9 10 9 8 8 8 9 8 6 6 8 8 6 7 6 7 6 6 6 5 6 8 10 11 12 13 14 14 13 10 13 12 12
6 4 3 3 3 5 5 4 4 7 5 4 2 5 7 7 8 9 9 7 6 6 7 7 6 6 5 8 6 5 5 5 5 4 5 8 7 8 10 10 11 13 14 15 14 11 14 13 11
5 5 4 3 5 2 5 6 5 5 8 11 9 10 8 9 5 8 9 6 5 3 6 6 6 5 4 5 4 5 4 4 4 4 5 5 7 9 10 10 12 14 13 14 13 13 15 16 16
9 8 3 4 6 5 5 13 5 8 3 7 10 13 9 9 8 7 7 7 5 6 5 6 5 6 3 1 3 3 3 3 4 4 4 4 6 8 8 11 12 11 13 13 14 15 15 16 17
Wind_Direction
315 305 303 24 46 75 263 276 249 318 64 58 73 92 98 49 30 114 255 141 63 58 50 44 52 53 51 50 47 42 41 39 36 59 46 37 26 20 330 342 358 313 334 313 353 355 358 34 19
310 308 35 309 98 328 282 316 95 72 93 103 100 85 58 78 73 110 218 74 99 74 54 51 55 56 51 50 50 48 44 38 34 31 40 43 16 294 252 279 258 261 278 286 288 288 306 349 343
266 185 66 143 189 208 264 328 103 91 96 68 105 49 60 66 76 88 269 275 98 78 58 50 54 55 54 51 48 46 44 38 34 28 28 23 21 10 261 239 263 272 275 276 279 292 292 283 300
304 34 338 98 263 269 296 338 111 77 62 88 117 74 80 13 121 181 238 90 86 79 77 65 58 56 53 50 47 46 43 40 37 31 24 17 9 1 357 318 248 257 267 272 285 294 277 246 257
344 32 289 266 270 269 273 3 72 134 84 73 79 107 90 76 117 93 71 68 66 52 81 74 58 59 53 49 43 45 44 43 40 33 20 12 356 344 340 334 310 270 260 261 261 260 273 285 243
338 110 350 274 280 303 91 17 330 71 94 116 80 93 80 136 120 93 86 82 77 67 45 42 43 49 56 53 44 42 38 33 28 31 17 10 355 340 327 319 313 297 272 263 261 260 254 257 258
171 90 245 278 284 324 39 50 18 61 65 38 127 80 135 128 117 105 104 106 107 77 57 47 43 23 21 48 38 31 34 31 32 39 21 10 7 2 358 339 322 316 295 269 257 259 259 253 244
102 97 302 295 299 203 344 41 88 65 61 137 127 141 161 152 135 135 133 123 106 87 66 56 36 18 6 37 19 32 31 27 24 34 19 9 4 358 352 346 343 333 310 289 259 248 246 250 250
102 35 304 286 37 290 57 89 39 67 76 52 10 89 129 144 144 136 131 112 88 72 64 54 42 18 6 29 23 29 33 19 22 23 11 12 5 353 354 351 348 346 342 305 297 275 257 253 250
122 144 245 23 24 14 343 64 132 84 100 77 83 99 127 145 151 145 126 102 88 66 56 60 45 26 19 10 25 18 25 11 23 9 3 17 16 2 357 353 352 352 344 344 324 289 268 258 256
231 180 284 301 73 21 337 340 109 130 64 148 141 140 151 156 132 117 111 108 107 90 55 48 43 27 19 13 27 7 13 29 8 359 13 24 13 357 1 349 347 343 343 342 334 331 317 262 256
353 301 294 290 98 91 316 303 77 31 167 136 139 147 150 130 106 99 92 94 94 82 62 42 39 26 17 15 22 2 4 36 12 0 10 16 9 358 349 350 350 345 341 334 332 335 329 311 286
340 330 330 333 327 200 246 303 135 111 98 119 132 134 129 106 96 99 104 94 98 85 69 51 52 32 14 12 3 2 15 27 16 1 359 11 3 3 8 359 350 343 344 356 345 336 331 323 315
308 320 312 304 292 289 192 254 93 260 125 117 126 132 128 127 127 98 85 74 79 93 78 64 53 45 16 10 4 2 21 25 14 8 7 10 26 10 5 358 358 2 356 342 336 330 325 314 311
305 318 302 266 246 232 174 302 240 162 148 144 148 136 122 116 100 107 101 90 91 77 70 56 61 35 11 2 2 7 20 16 22 15 9 33 14 21 19 5 358 347 340 330 324 322 317 313 314
288 276 291 276 236 228 128 247 257 164 155 161 159 150 142 139 125 113 100 86 77 65 54 58 53 26 6 14 12 16 17 24 16 7 15 20 22 21 15 359 348 337 330 318 318 319 316 319 325
279 247 242 283 265 128 127 220 226 160 161 169 175 148 141 121 109 104 92 87 92 76 56 46 42 22 24 31 18 20 25 16 4 28 23 28 20 8 5 351 352 350 338 331 325 320 317 315 313
264 307 321 311 338 30 300 263 179 180 165 177 171 167 157 140 133 111 96 83 84 74 64 64 49 31 24 9 27 31 16 12 38 27 37 23 15 14 0 6 350 345 334 328 326 316 312 303 302
323 344 330 314 324 328 278 264 204 207 197 176 178 163 153 123 124 111 108 99 96 71 62 48 51 29 22 17 27 27 23 34 33 27 27 13 15 11 357 1 349 342 336 324 317 315 313 313 311
334 308 302 300 332 334 336 301 254 178 214 200 181 163 133 129 126 120 115 105 96 86 74 65 69 42 31 34 23 20 16 40 31 21 14 13 9 4 2 356 351 342 327 320 318 314 308 299 295
307 311 305 307 336 348 337 301 326 308 319 191 196 157 144 143 135 127 120 111 97 82 75 79 75 57 42 37 24 17 26 37 26 16 15 7 11 3 6 356 350 341 330 317 316 318 313 309 307
319 307 8 359 4 297 38 293 283 274 276 282 179 126 133 127 120 121 115 101 100 96 76 71 78 61 58 47 38 33 37 31 25 18 8 5 7 7 8 357 353 342 335 333 323 322 307 303 305
277 4 331 305 293 308 180 244 297 306 295 102 107 109 111 118 118 108 110 110 111 99 94 76 90 72 59 52 46 34 37 38 23 14 11 9 5 9 5 5 353 352 344 334 328 324 321 304 289
347 353 320 285 245 272 259 217 286 8 325 103 108 109 113 109 110 109 113 114 100 86 75 65 84 75 69 65 51 43 35 30 20 16 12 8 4 8 6 5 2 359 352 345 342 339 345 334 319
256 200 330 333 104 227 288 311 38 17 8 131 121 112 107 103 103 112 115 97 97 85 60 65 55 72 71 74 60 51 44 29 17 21 10 13 5 10 9 5 4 4 356 356 354 355 345 349 341
207 200 175 252 272 295 321 249 136 65 49 69 73 95 99 118 127 109 103 99 92 88 72 65 46 43 64 75 67 48 49 28 29 21 11 10 9 11 12 5 3 8 1 358 7 1 357 2 354
202 263 214 258 275 254 219 79 131 110 87 96 107 112 140 129 126 117 112 101 84 92 85 86 65 38 63 69 57 38 49 49 43 25 21 11 8 18 18 12 9 8 12 6 8 10 8 8 9
195 202 351 345 301 276 281 320 193 169 173 190 122 150 143 137 118 114 97 90 79 75 97 82 72 59 44 79 60 51 53 50 49 34 28 26 20 18 24 17 15 18 19 13 9 14 11 10 13
294 289 228 218 146 173 317 272 168 129 169 200 208 196 163 138 118 129 111 105 99 83 114 110 90 76 56 70 97 71 42 43 52 37 33 36 34 33 23 16 24 29 20 16 16 13 16 16 14
290 283 303 129 263 211 192 258 217 175 196 175 193 180 179 143 130 106 121 126 107 94 104 126 139 105 90 39 69 122 76 350 50 52 15 52 47 39 22 21 28 28 30 18 18 18 17 18 14